[[{"header":{"parameterUnit":"m.s-1","parameterCategory":1,"la1":30.2992,"la2":30.254,"lo1":-89.0895,"lo2":-89.0443,"dy":0.0025,"dx":0.0025,"nx":19,"ny":19,"refTime":"2026-03-26T03:00:00:Z","depth":0,"parameterNumber":2,"parameterNumberName":"U-component_of_WINDS"},"data":[0,0,0,-2.3893,-2.3895,-2.3975,-2.3975,-2.4088,-2.4089,0,0,0,0,0,0,0,0,0,0,0,-2.3876,-2.3877,-2.3893,-2.3896,-2.3975,-2.3975,-2.4088,-2.4089,0,0,0,0,0,0,0,0,0,0,0,-2.3876,-2.3877,-2.3878,-2.3896,-2.3975,-2.3975,-2.4087,-2.4024,0,0,0,0,0,0,0,0,0,0,-2.3944,-2.3934,-2.3876,-2.3878,-2.3896,-2.3975,-2.3975,-2.402,-2.4028,-2.4056,0,-2.4083,0,-2.4088,-2.4097,-2.4098,0,0,0,-2.3891,-2.3928,-2.3944,-2.3878,-2.3897,-2.3975,-2.3938,-2.4024,-2.4032,-2.4066,-2.4085,-2.4089,-2.409,-2.4098,-2.4099,-2.428,-2.4281,0,0,-2.3886,-2.3894,-2.3939,-2.395,-2.3938,-2.3935,-2.394,-2.4029,-2.405,-2.4085,-2.4091,-2.4092,-2.4099,-2.41,-2.4279,-2.428,0,0,0,-2.3877,-2.3891,-2.3904,-2.3945,-2.3959,-2.3938,-2.3943,-2.4046,-2.405,-2.4092,-2.4093,-2.4099,-2.4101,-2.4278,-2.428,-2.4339,0,0,0,-2.3874,-2.3885,-2.3903,-2.3908,-2.3958,-2.4003,-2.3959,-2.4044,-2.4053,-2.4093,-2.41,-2.4102,-2.4277,-2.4279,-2.4334,-2.4365,0,0,0,-2.3869,-2.3884,-2.3898,-2.3908,-2.3942,-2.4002,-2.4011,-2.4046,-2.4054,-2.4098,-2.4103,-2.4276,-2.4278,-2.4331,-2.4359,-2.4414,0,0,0,-2.3865,-2.3949,-2.3899,-2.3994,-2.3942,-2.4038,-2.401,-2.4081,-2.4125,-2.41,-2.4277,-2.4279,-2.4329,-2.4355,-2.4411,-2.4462,-2.4484,0,0,-2.3975,-2.3962,-2.4017,-2.3975,-2.4082,-2.4025,-2.4141,-2.4175,-2.4173,-2.4245,-2.4249,-2.4336,-2.4358,-2.4414,-2.4609,-2.4626,0,0,0,-2.4055,-2.4094,-2.4121,-2.4164,-2.4192,-2.4219,-2.4235,-2.4248,-2.4309,-2.4211,-2.4371,-2.4385,-2.4417,-2.4441,-2.4456,-2.4483,-2.4291,-2.4291,-2.4291,-2.4219,-2.4212,-2.4303,-2.4307,-2.4349,-2.4365,-2.4399,-2.4419,-2.4399,-2.4438,-2.4458,-2.4578,-2.4606,-2.4618,-2.4646,-2.4486,-2.4486,-2.4487,-2.4487,-2.4378,-2.4433,-2.4407,-2.4485,-2.4479,-2.4545,-2.4565,-2.4549,-2.461,-2.4561,-2.4589,-2.4535,-2.4637,-2.4662,-2.4491,-2.449,-2.449,-2.4489,-2.4489,-2.4484,-2.4509,-2.4524,-2.4586,-2.4635,-2.4637,-2.4697,-2.4689,-2.4681,-2.4709,-2.473,-2.4729,-2.4727,-2.472,-2.4721,-2.4721,-2.4722,-2.4722,-2.4722,-2.4586,-2.4602,-2.4653,-2.4692,-2.4719,-2.4754,-2.4774,-2.48,-2.4828,-2.4817,-2.4817,-2.4794,-2.4649,-2.4612,-2.4729,-2.4727,-2.4727,-2.4726,-2.4726,-2.4748,-2.4711,-2.479,-2.4817,-2.4863,-2.4913,-2.4903,-2.4959,-2.498,-2.501,-2.4983,-2.4877,-2.4863,-2.4851,-2.482,-2.4984,-2.4984,-2.4984,-2.4984,-2.4836,-2.4829,-2.4909,-2.4954,-2.4997,-2.4996,-2.5088,-2.5105,-2.5116,-2.5129,-2.5105,-2.5064,-2.5052,-2.5046,-2.5029,-2.5,-2.5206,-2.5206,-2.5206,-2.4935,-2.4932,-2.501,-2.5021,-2.5057,-2.5089,-2.5174,-2.5228,-2.5233,-2.5215,-2.5139,-2.513,-2.5064,-2.5043,-2.502,-2.4995,-2.4942,0,0]},{"header":{"parameterUnit":"m.s-1","parameterCategory":1,"la1":30.2992,"la2":30.254,"lo1":-89.0895,"lo2":-89.0443,"dy":0.0025,"dx":0.0025,"nx":19,"ny":19,"refTime":"2026-03-26T03:00:00:Z","depth":0,"parameterNumber":3,"parameterNumberName":"V-component_of_WINDS"},"data":[0,0,0,2.0154,2.0154,2.0162,2.0162,2.0147,2.0147,0,0,0,0,0,0,0,0,0,0,0,2.0138,2.0138,2.0154,2.0154,2.0162,2.0162,2.0147,2.0147,0,0,0,0,0,0,0,0,0,0,0,2.0139,2.0138,2.0137,2.0154,2.0162,2.0162,2.0147,2.015,0,0,0,0,0,0,0,0,0,0,2.0146,2.0119,2.0138,2.0137,2.0154,2.0162,2.0162,2.015,2.015,2.0133,0,2.0118,0,2.0132,2.0145,2.0144,0,0,0,2.0163,2.0119,2.0134,2.0137,2.0154,2.0162,2.0161,2.015,2.0149,2.0132,2.0118,2.0118,2.0132,2.0144,2.0144,2.0028,2.0027,0,0,2.0162,2.0132,2.0134,2.0133,2.0133,2.0161,2.0161,2.015,2.0131,2.0118,2.0118,2.0132,2.0144,2.0144,2.0029,2.0028,0,0,0,2.0155,2.0131,2.0147,2.0133,2.0137,2.0161,2.0161,2.0131,2.0139,2.0118,2.0132,2.0144,2.0143,2.003,2.0029,1.9952,0,0,0,2.0155,2.0127,2.0146,2.0127,2.0136,2.0134,2.0142,2.014,2.014,2.0132,2.0144,2.0143,2.0032,2.003,1.9957,1.992,0,0,0,2.0142,2.0125,2.0123,2.0125,2.0128,2.0135,2.0143,2.0141,2.0147,2.0144,2.0143,2.0032,2.003,1.9961,1.9927,1.9881,0,0,0,2.0118,2.0052,2.0121,2.0052,2.0128,2.0089,2.0143,2.0115,2.0103,2.0144,2.0031,2.0029,1.9962,1.9931,1.9885,1.9836,1.9814,0,0,2.0017,2.0038,2.0,2.0063,2.0004,2.009,2.002,2.0037,2.0063,2.0038,2.0035,1.9955,1.9927,1.9882,1.9699,1.9681,0,0,0,1.9958,1.993,1.9921,1.9911,1.9925,1.9933,1.9965,1.9972,1.9953,2.0045,1.9928,1.9912,1.9887,1.9865,1.9849,1.9829,2.0018,2.0018,2.0018,1.9767,1.9808,1.9748,1.9791,1.978,1.9816,1.981,1.9825,1.9866,1.9838,1.983,1.9715,1.9688,1.9676,1.9655,1.9809,1.9809,1.9808,1.9808,1.9621,1.9588,1.965,1.9614,1.9657,1.9627,1.9659,1.969,1.9667,1.9723,1.9703,1.976,1.9655,1.9639,1.9803,1.9804,1.9804,1.9805,1.9805,1.9499,1.9491,1.9503,1.9495,1.9483,1.9528,1.9505,1.9545,1.9581,1.9561,1.9558,1.9559,1.9564,1.9557,1.9557,1.9557,1.9556,1.9556,1.9556,1.9367,1.9384,1.9361,1.9373,1.9373,1.9378,1.9416,1.9416,1.9426,1.9457,1.9457,1.9501,1.9639,1.9671,1.955,1.9551,1.9552,1.9552,1.9553,1.9201,1.9246,1.9209,1.921,1.9229,1.9215,1.9269,1.9267,1.9273,1.926,1.931,1.9406,1.9429,1.9442,1.9469,1.9302,1.9302,1.9302,1.9302,1.9097,1.9115,1.9088,1.9087,1.909,1.9135,1.9092,1.9121,1.9158,1.9164,1.9195,1.9235,1.9247,1.9263,1.928,1.9306,1.9101,1.9101,1.9101,1.8997,1.9018,1.8973,1.9014,1.9033,1.9047,1.9008,1.9002,1.9053,1.9093,1.917,1.9178,1.9244,1.9264,1.9302,1.9327,1.9376,0,0]}]]